Powrót do katalogu

WNISAT 1R

AktywnyPogodaSSO
NORAD 42835·PAYLOAD·🇯🇵 Japan

Wystrzelony Jul 14, 2017 z Baikonur Cosmodrome

Loading…

Następne Przeloty (najbliższe 24 godziny)

TLE

ŚwieżeSource: Space-Track

Epoka: Sep 14, 2026, 08:49 UTC

1 42835U 17042L   26257.36757553  .00002173  00000-0  16980-3 0  9999
2 42835  97.4940  50.3281 0008299 187.1390 172.9719 15.02088908499899

Śledź WNISAT 1R w czasie rzeczywistym z AllMySat

Download on the App Store